Location: Marcé
(47.5801°N, 0.3280°W)
Time: 01:14:59
(UTC+02:00)

FENGYUN 1C DEB - Visible Passes

Search period start: 13 July 2024 00:00
Search period end: 23 July 2024 00:00
Orbit: 724 x 791 km, 99.1° (Epoch: 12 July)

Date Brightness Start Highest point End Pass type
(mag) Time Alt. Az. Time Alt. Az. Time Alt. Az.
13 Jul ? 02:43:45 10° NNE 02:48:30 36° E 02:50:37 26° SE visible
13 Jul ? 04:22:34 10° N 04:27:14 35° WNW 04:30:39 17° WSW visible
14 Jul ? 02:05:50 10° NE 02:09:10 17° E 02:11:08 14° ESE visible
14 Jul ? 03:43:17 10° NNE 03:48:27 73° WNW 03:51:10 29° SSW visible
14 Jul ? 05:24:02 10° NNW 05:26:22 13° NW 05:28:42 10° W visible
15 Jul ? 03:04:22 10° NNE 03:09:27 53° E 03:11:39 32° SSE visible
15 Jul ? 04:43:44 10° N 04:47:54 25° WNW 04:51:41 12° WSW visible
16 Jul ? 02:25:57 10° NE 02:30:13 25° E 02:32:07 20° SE visible
16 Jul ? 04:04:13 10° N 04:09:12 50° WNW 04:12:09 23° SW visible
17 Jul ? 01:49:01 10° ENE 01:50:42 11° E 01:52:23 10° ESE visible
17 Jul ? 03:25:03 10° NNE 03:30:16 79° ESE 03:32:36 34° S visible
17 Jul ? 05:04:59 10° NNW 05:08:25 18° WNW 05:11:51 10° W visible
18 Jul ? 02:46:17 10° NNE 02:51:05 37° E 02:53:01 28° SE visible
18 Jul ? 04:25:08 10° N 04:29:48 35° WNW 04:33:03 18° WSW visible
19 Jul ? 02:08:13 10° NE 02:11:40 18° E 02:13:25 15° ESE visible
19 Jul ? 03:45:45 10° N 03:50:56 72° WNW 03:53:27 31° SSW visible
19 Jul ? 05:26:31 10° NNW 05:28:48 13° NW 05:31:05 10° W visible
20 Jul ? 03:06:42 10° NNE 03:11:49 55° E 03:13:49 34° SSE visible
20 Jul ? 04:46:05 10° N 04:50:14 25° WNW 04:53:51 12° WSW visible
21 Jul ? 02:28:10 10° NE 02:32:28 26° E 02:34:11 22° ESE visible
21 Jul ? 04:06:27 10° N 04:11:27 49° WNW 04:14:12 25° SW visible
22 Jul ? 01:51:03 10° ENE 01:52:52 12° E 01:54:31 10° ESE visible
22 Jul ? 03:27:11 10° NNE 03:32:25 80° ESE 03:34:32 37° S visible
22 Jul ? 05:07:07 10° NNW 05:10:33 18° WNW 05:13:58 10° W visible
